Regional Weather Roundup
Issued by NWS

Home | Current Version | Previous Version | Graphics & Text | Print | Product List | Glossary On
Versions: 1 2 3 4 5 6 7 8 9 10 11 12 13 14 15 16 17 18 19 20 21 22 23 24 25 26 27 28 29 30 31 32 33 34 35 36 37 38 39 40 41 42 43 44 45 46 47 48 49 50
000
ASUS45 KCYS 271110
RWRWY

WYOMING REGIONAL WEATHER ROUNDUP
NATIONAL WEATHER SERVICE CHEYENNE WY
400 AM MST TUE JAN 27 2015

NOTE:  "FAIR" INDICATES FEW OR NO CLOUDS BELOW 12,000 FEET
WITH NO SIGNIFICANT WEATHER AND/OR OBSTRUCTIONS TO VISIBILITY.

WYZ001-271200-
YELLOWSTONE NATIONAL PARK

CITY           SKY/WX    TMP DP  RH WIND       PRES   REMARKS
LK YELLOWSTONE   N/A      8   5  87 CALM      30.28F
W YELLOWSTONE  NOT AVBL

$$
WYZ002>013-054>058-071-098>099-271200-
NORTHERN WYOMING

CITY           SKY/WX    TMP DP  RH WIND       PRES   REMARKS
JACKSON        CLOUDY    12  10  92 NE6       30.28F WCI   3
CODY           FAIR      36  27  69 S7        30.06F WCI  30
GREYBULL       FAIR      16  14  92 CALM      30.10F
WORLAND        FAIR      19  17  92 SW7       30.09F WCI  10
SHERIDAN       FAIR      40  24  53 CALM      29.96F
BUFFALO        FAIR      46  22  38 CALM      30.03S
GILLETTE       FAIR      48  27  44 SW18      30.00S
HULETT           N/A    N/A N/A N/A MISG        N/A
NEWCASTLE      FAIR      32  27  80 CALM      30.06S

$$
WYZ014>020-022>026-101>103-271200-
CENTRAL WYOMING

CITY           SKY/WX    TMP DP  RH WIND       PRES   REMARKS
BIG PINEY      FAIR      14  10  84 E9        30.28F WCI   2
PINEDALE       FAIR      12  10  92 NW7       30.29F WCI   2
DUBOIS         FAIR      34  19  55 NW14      30.20S WCI  24
LANDER         FAIR      26  21  81 CALM      30.15
RIVERTON       FAIR      29  25  85 NE6       30.17F WCI  23
CASPER         FAIR      44  24  45 SW22      30.13R
DOUGLAS        FAIR      41  23  48 N5        30.10S

$$
WYZ021-027>030-104>119-271200-
SOUTHERN WYOMING

CITY           SKY/WX    TMP DP  RH WIND       PRES   REMARKS
EVANSTON       FAIR      34  25  69 E12       30.24F WCI  25
KEMMERER       FAIR      27  21  80 N8        30.26F WCI  18
FORT BRIDGER   FAIR      31  28  90 W6        30.29S WCI  25
ROCK SPRINGS   FAIR      33  25  72 CALM      30.25F
DIXON          FAIR      24  20  84 SE7       30.33F WCI  16
RAWLINS        FAIR      26  21  81 VRB3      30.28S
SARATOGA       FAIR      32  23  69 CALM      30.30S
LARAMIE        FAIR      29  20  69 S7        30.26S WCI  22
CHEYENNE       FAIR      49  18  29 W16       30.16F
TORRINGTON     FAIR      31  25  78 VRB3      30.06F
PINE BLUFFS    FAIR      37  23  56 SE5       30.13S WCI  34

$$


USA.gov is the U.S. government's official web portal to all federal, state and local government web resources and services.